Aeroporto :
LOGIN :

Iscrizione | Disclaimer

   EN    FR    IT 

 










Sommario :    VFR   VFR Marginale   IFR   IFR Intensivo   IFR Molto Intensivo
Visibilità : 
Base nubi : 
>= 8 km
>= 3000ft
5 / 8 km
1000 / 3000 ft
1500m / 5 km
500 / 1000 ft
800 / 1500m
200 / 500 ft
< 800m
< 200 ft
Simboli :   Temporali  Nebbia  Neve Forte  Precipitazioni Forti  Vento > 20 kt
SIGMETs :   Varie  Temporali  Ghiacco  Turbolenza  Onda orograficha  Ceneri Vulcaniche






- Altitudine del aeroporto : 121 ft
- Codice IATA : HUY


EGNJ - Humberside

ULTIMO METAR :
  • 080950Z 09004KT 9999 FEW040 16/08 Q1026

METARs OBSOLETI :
  • 080920Z VRB03KT 9999 FEW040 15/08 Q1026
  • 080850Z VRB03KT 9999 FEW040 14/07 Q1026
  • 080820Z VRB03KT 9999 FEW040 13/07 Q1026
  • 080750Z VRB02KT 9999 FEW040 12/08 Q1026
  • 080720Z VRB01KT 9999 FEW040 10/07 Q1026

TAF TAF EGNJ
Valido dal 08 a 09 ore il 08 a 18 ore UTC


080759Z 0809/0818 23005KT 9999 FEW040
PROB30 0812/0818 13010KT
ATIS : +44 1652 682 020



MetMap, La meteo Aeronautica in un colpo d'occhio ! - Copyright ORBIFLY Dicembre 2007 - Disclaimer

ORBIFLY MET'MAP TEAM :

Programmazione e sviluppo : Alexandra Zaïnal
Concezione : Baudouin d'Aumeries
Aiuto per la programmazione : Marc-Olivier Méhu
Supporto tecnico e logistico : Manuel Goepfert
Aiuto per la traduzione : Arnaldo La Scala

Contatto : metmap@orbifly.com




FONTI E CREDITI :

   NOAA